Weather reports worldwide

Advertisment
Santiago de Compostela/Labacolla, Spain (8042): temperature & dewpoint: 06.12.2018 00:00:00 - 12.12.2018 00:00:00 (CET)Santiago de Compostela/Labacolla, Spain (8042): wind speed: 06.12.2018 00:00:00 - 12.12.2018 00:00:00 (CET)Santiago de Compostela/Labacolla, Spain (8042): wind direction: 06.12.2018 00:00:00 - 12.12.2018 00:00:00 (CET)Santiago de Compostela/Labacolla, Spain (8042): reduced air pressure: 06.12.2018 00:00:00 - 12.12.2018 00:00:00 (CET)Santiago de Compostela/Labacolla, Spain (8042): visibility: 06.12.2018 00:00:00 - 12.12.2018 00:00:00 (CET)
Date & Time tt [°C] td [°C] ff [km/h] ff [kn] dd ppp [hPa] vv [km]
12.12.2018 00:00:00 8,4 8,4 4 2 S 1024,6 7
11.12.2018 23:00:00 8,5 8,4 5 3 S 1024,9 7
11.12.2018 22:00:00 8,7 8,4 0 0 N 1025,0 10
11.12.2018 21:00:00 8,8 8,5 9 5 N 1025,0 14
11.12.2018 20:00:00 9,5 9,4 18 10 NNW 1024,9 2,5
11.12.2018 19:00:00 10,8 10,7 4 2 SW 1023,8 2,2
11.12.2018 18:00:00 10,7 10,5 8 4 SW 1023,7 2,4
11.12.2018 17:00:00 11,0 10,7 9 5 SW 1023,0 8
11.12.2018 16:00:00 11,7 10,4 8 4 SW 1022,3 9
11.12.2018 15:00:00 11,9 10,1 9 5 WSW 1022,0 14
11.12.2018 14:00:00 11,7 8,9 9 5 WSW 1022,1 40
11.12.2018 13:00:00 12,3 7,1 11 6 SW 1022,4 40
11.12.2018 12:00:00 11,6 4,5 9 5 SW 1022,9 30
11.12.2018 11:00:00 10,4 2,7 9 5 S 1022,7 30
11.12.2018 10:00:00 9,4 1,7 11 6 SSW 1023,1 40
11.12.2018 09:00:00 8,3 0,5 8 4 S 1022,2 30
11.12.2018 08:00:00 8,3 0,2 8 4 S 1022,0 30
11.12.2018 07:00:00 8,4 0,7 9 5 S 1021,9 25
11.12.2018 06:00:00 9,4 -0,1 8 4 S 1021,9 30
11.12.2018 05:00:00 9,6 -0,1 9 5 SSE 1022,3 30
11.12.2018 04:00:00 10,3 0,0 9 5 SSE 1022,3 25
11.12.2018 03:00:00 10,2 0,4 9 5 SSE 1022,6 30
11.12.2018 02:00:00 10,2 0,4 9 5 SSE 1023,3 30
11.12.2018 01:00:00 10,4 0,7 9 5 SSE 1024,2 25
11.12.2018 00:00:00 10,2 1,3 4 2 SE 1024,6 30
10.12.2018 23:00:00 10,1 2,0 8 4 SSE 1024,6 30
10.12.2018 22:00:00 10,2 2,7 5 3 SE 1024,9 30
10.12.2018 21:00:00 12,5 2,1 9 5 SSE 1024,9 30
10.12.2018 20:00:00 10,9 3,7 9 5 SE 1025,6 30
10.12.2018 19:00:00 11,3 5,0 8 4 SE 1025,7 30
10.12.2018 18:00:00 11,8 6,7 5 3 SE 1025,9 30
10.12.2018 17:00:00 13,0 9,3 2 1 E 1025,8 30
10.12.2018 16:00:00 14,3 9,1 4 2 ENE 1025,7 30
10.12.2018 15:00:00 14,1 8,3 4 2 E 1026,5 30
10.12.2018 14:00:00 13,5 7,9 4 2 ESE 1027,5 30
10.12.2018 13:00:00 13,3 5,2 5 3 ESE 1028,7 30
10.12.2018 12:00:00 11,6 6,4 9 5 SE 1030,0 30
10.12.2018 11:00:00 9,8 3,8 4 2 E 1030,7 30
10.12.2018 10:00:00 8,3 3,7 4 2 NNE 1031,1 40
10.12.2018 09:00:00 6,6 3,6 4 2 N 1031,4 30
10.12.2018 08:00:00 7,2 4,5 4 2 N 1031,5 15
10.12.2018 07:00:00 7,4 4,7 4 2 NNE 1031,5 7
10.12.2018 06:00:00 5,5 4,8 0 0 N 1031,9 18
10.12.2018 05:00:00 5,3 4,6 4 2 NNW 1032,9 13
10.12.2018 04:00:00 5,9 5,9 0 0 N 1033,2 3,0
10.12.2018 03:00:00 5,6 5,6 4 2 N 1033,7 3,5
10.12.2018 02:00:00 6,4 6,4 0 0 N 1033,8 6
10.12.2018 01:00:00 6,7 6,7 0 0 N 1034,4 4,0
10.12.2018 00:00:00 6,8 6,8 2 1 ENE 1034,6 1,9
09.12.2018 23:00:00 7,5 7,4 4 2 N 1034,6 1,2
09.12.2018 22:00:00 8,0 7,6 5 3 N 1034,5 6
09.12.2018 21:00:00 8,4 7,6 5 3 N 1034,3 7
09.12.2018 20:00:00 8,8 7,9 8 4 NNE 1034,1 7
09.12.2018 19:00:00 9,2 8,3 11 6 N 1033,9 8
09.12.2018 18:00:00 10,2 9,0 9 5 N 1033,2 9
09.12.2018 17:00:00 12,6 10,0 9 5 N 1032,5 14
09.12.2018 16:00:00 14,0 10,3 8 4 N 1032,0 30
09.12.2018 15:00:00 13,8 10,7 8 4 N 1032,1 27
09.12.2018 14:00:00 13,5 10,7 4 2 E 1032,5 30
09.12.2018 13:00:00 12,7 10,2 0 0 N 1033,2 30
09.12.2018 12:00:00 11,4 10,4 4 2 N 1034,2 28
09.12.2018 11:00:00 10,3 10,3 0 0 N 1034,5 15
09.12.2018 10:00:00 8,8 8,8 2 1 E 1034,2 0,8
09.12.2018 09:00:00 9,6 9,6 9 5 NNW 1033,9 1,3
09.12.2018 08:00:00 9,1 9,1 0 0 N 1033,7 0,3
09.12.2018 07:00:00 9,5 9,5 0 0 N 1033,1 0,3
09.12.2018 06:00:00 9,5 9,5 0 0 N 1033,2 -
09.12.2018 05:00:00 9,7 9,7 4 2 SSE 1033,0 -
09.12.2018 04:00:00 10,1 10,1 4 2 SSW 1033,1 3,0
09.12.2018 03:00:00 9,9 9,9 9 5 SSW 1032,5 1,7
09.12.2018 02:00:00 9,7 9,2 9 5 SSW 1032,6 10
09.12.2018 01:00:00 9,5 9,4 9 5 SSW 1033,0 4,0
09.12.2018 00:00:00 9,4 9,3 15 8 SSW 1033,0 3,0
08.12.2018 23:00:00 9,5 9,0 8 4 SSW 1033,1 4,7
08.12.2018 22:00:00 9,4 9,1 11 6 S 1032,8 5
08.12.2018 21:00:00 9,5 9,0 11 6 S 1032,6 6
08.12.2018 20:00:00 9,6 9,0 9 5 SSW 1032,5 8
08.12.2018 19:00:00 9,9 8,8 9 5 SSW 1032,4 12
08.12.2018 18:00:00 10,0 8,6 11 6 SSW 1031,9 13
08.12.2018 17:00:00 10,6 9,0 13 7 SW 1031,8 12
08.12.2018 16:00:00 10,5 8,7 16 9 WSW 1031,7 15
08.12.2018 15:00:00 10,8 9,1 13 7 SW 1032,0 14
08.12.2018 14:00:00 10,2 8,6 11 6 SW 1032,5 12
08.12.2018 13:00:00 9,8 8,6 8 4 SW 1033,0 12
08.12.2018 12:00:00 8,6 7,7 5 3 S 1033,2 13
08.12.2018 11:00:00 7,7 6,8 8 4 S 1033,2 14
08.12.2018 10:00:00 5,9 5,9 9 5 S 1033,3 20
08.12.2018 09:00:00 4,9 4,9 5 3 S 1033,2 9
08.12.2018 08:00:00 4,7 4,7 9 5 S 1033,5 11
08.12.2018 07:00:00 4,8 4,8 11 6 S 1033,1 0,9
08.12.2018 06:00:00 4,3 4,2 4 2 E 1032,9 6
08.12.2018 05:00:00 5,1 4,5 4 2 WSW 1032,6 -
08.12.2018 04:00:00 7,8 6,6 8 4 WSW 1032,4 15
08.12.2018 03:00:00 8,1 6,6 8 4 SW 1032,5 13
08.12.2018 02:00:00 7,2 7,2 5 3 SSW 1032,4 1,4
08.12.2018 01:00:00 7,7 7,6 9 5 S 1032,3 10
08.12.2018 00:00:00 8,3 6,6 8 4 SW 1032,3 13
07.12.2018 23:00:00 8,6 7,2 8 4 SW 1032,2 11
07.12.2018 22:00:00 7,7 6,5 5 3 SW 1032,8 15
07.12.2018 21:00:00 7,3 6,4 4 2 SW 1032,4 11
07.12.2018 20:00:00 7,9 7,1 5 3 WNW 1032,0 11
07.12.2018 19:00:00 9,6 8,3 9 5 NW 1031,2 15
07.12.2018 18:00:00 10,1 9,5 9 5 W 1030,5 11
07.12.2018 17:00:00 11,1 9,7 13 7 WNW 1029,6 16
07.12.2018 16:00:00 11,9 11,1 13 7 WNW 1029,0 15
07.12.2018 15:00:00 11,9 11,7 22 12 WNW 1029,0 2,2
07.12.2018 14:00:00 11,9 11,9 18 10 SW 1028,4 2,0
07.12.2018 13:00:00 11,7 11,5 22 12 SW 1028,7 4,0
07.12.2018 12:00:00 11,3 11,3 16 9 SW 1029,1 4,1
07.12.2018 11:00:00 11,1 11,1 15 8 SW 1029,0 4,1
07.12.2018 10:00:00 10,7 10,7 15 8 SW 1028,8 3,0
07.12.2018 09:00:00 10,7 10,7 15 8 SW 1029,1 8
07.12.2018 08:00:00 10,5 10,5 13 7 SSW 1028,8 1,8
07.12.2018 07:00:00 10,1 10,1 16 9 SSW 1028,4 0,3
07.12.2018 06:00:00 10,0 10,0 13 7 SW 1029,1 3,4
07.12.2018 05:00:00 9,8 9,8 16 9 SSW 1028,3 1,9
07.12.2018 04:00:00 9,8 9,7 13 7 SSW 1028,7 2,4
07.12.2018 03:00:00 10,0 9,4 9 5 S 1029,0 13
07.12.2018 02:00:00 10,1 9,3 11 6 SSW 1029,3 16
07.12.2018 01:00:00 10,0 9,2 11 6 SSW 1029,9 15
07.12.2018 00:00:00 10,0 9,2 11 6 SSW 1030,0 13
06.12.2018 23:00:00 10,0 9,7 9 5 SSW 1030,4 8
06.12.2018 22:00:00 10,2 9,9 8 4 S 1030,4 5
06.12.2018 21:00:00 10,2 10,2 9 5 SSW 1030,7 6
06.12.2018 20:00:00 10,0 9,7 9 5 SW 1030,8 9
06.12.2018 19:00:00 10,6 9,7 8 4 SW 1030,6 15
06.12.2018 18:00:00 11,2 9,6 8 4 SW 1030,5 23
06.12.2018 17:00:00 12,5 10,3 9 5 SW 1030,3 30
06.12.2018 16:00:00 12,7 10,1 8 4 SSW 1030,1 30
06.12.2018 15:00:00 13,7 10,0 9 5 SSW 1030,5 26
06.12.2018 14:00:00 12,8 10,4 11 6 SSW 1031,1 29
06.12.2018 13:00:00 12,8 10,4 9 5 WSW 1031,6 30
06.12.2018 12:00:00 11,7 10,8 11 6 SW 1032,0 19
06.12.2018 11:00:00 10,7 10,3 8 4 SW 1031,9 14
06.12.2018 10:00:00 10,5 10,2 8 4 SSW 1031,5 8
06.12.2018 09:00:00 10,5 10,3 5 3 SSW 1030,9 -
06.12.2018 08:00:00 10,4 10,2 9 5 SSW 1030,4 7
06.12.2018 07:00:00 10,5 10,2 8 4 SW 1030,1 6
06.12.2018 06:00:00 10,6 10,1 9 5 SW 1030,0 9
06.12.2018 05:00:00 10,7 10,4 11 6 SW 1029,8 11
06.12.2018 04:00:00 10,9 10,4 11 6 SW 1030,0 15
06.12.2018 03:00:00 11,3 10,7 11 6 SW 1029,4 14
06.12.2018 02:00:00 11,5 11,2 15 8 SSW 1028,9 11
06.12.2018 01:00:00 11,6 11,3 11 6 SW 1029,1 8
06.12.2018 00:00:00 11,8 11,6 11 6 SW 1028,8 11

tt = temperature
td = dewpoint
ff = wind speed
dd = wind direction
ppp = reduced air pressure
vv = visibility

Next stations